CAPE
2380 2463 2755 2738 2638 2655 2713 2480 2216 2077 2283 2038 1817 1946 1804 1721 1705 1630 1591 1716 1571 1703 1671 1570 1423 1651 1534 1362 1024 832 745 590 430 349 119 69 103 296 270 110 327 757 802 829 709 492 942 858 813 724 829 1004 1088 1090 1056 1341 1150 1082 1024 1080 973 955 1038 1150 1039 1182 1373 1278 1232 1225 1326 1269 1262 1226 1580 1619 1540 1540 1478 1396 1263 1162 1126 1159 1131
2498 2621 2744 2727 2688 2648 2585 2448 2259 2452 2210 1946 1836 1809 1625 1567 1481 1569 1525 1388 1491 1514 1493 1577 1464 1591 1449 1104 851 667 555 566 558 424 287 198 172 109 169 227 354 423 471 565 502 618 833 723 718 967 1207 1028 938 1169 1188 931 955 1007 1027 996 870 1074 795 963 866 856 1049 1140 1153 1153 1218 1213 1087 1513 1443 1566 1470 1482 1405 1412 1281 951 934 1222 1172
2620 2728 2692 2634 2699 2610 2510 2418 2407 2414 2028 1981 1652 1598 1665 1322 1388 1276 1266 1486 1564 1455 1701 1352 1200 1166 1271 1024 819 698 580 566 469 325 262 316 323 290 210 186 252 345 378 383 388 615 843 772 715 733 833 1063 1120 1204 945 742 826 898 975 874 834 918 924 1010 763 879 951 1119 1108 1204 1149 1086 1179 1262 1331 1314 1252 1241 1207 1230 1196 1137 1045 1099 1080
2556 2638 2609 2770 2686 2510 2513 2461 2395 2398 2077 1752 1681 1768 1643 1639 1466 1420 1506 1535 1475 1540 1276 1542 1520 1407 1200 1002 896 786 712 684 539 500 340 294 318 273 448 540 481 422 438 378 394 546 845 697 841 764 874 1154 1096 1095 874 968 1032 980 1153 1117 866 957 998 1003 963 987 1067 1149 1090 884 846 640 773 967 1050 1084 1080 1016 984 986 1045 1144 1171 1159 1084
2536 2615 2656 2657 2448 2483 2530 2442 2139 2338 1912 1840 1847 1844 1848 1592 1439 1344 1352 1492 1351 1271 1488 1455 1233 1375 1183 1054 960 840 748 679 589 403 320 415 452 422 338 302 284 480 553 538 566 581 653 798 885 754 858 843 763 990 870 1068 1040 1033 1078 986 1084 1294 1191 1012 906 915 942 945 901 705 749 776 633 490 539 668 733 732 741 764 736 720 878 969 996
2540 2579 2610 2472 2390 2509 2428 2311 2308 1970 1992 1817 1525 1553 1914 1598 1372 1326 1580 1446 1330 1342 1424 1528 1463 1336 1211 1106 982 890 783 711 696 622 584 569 508 308 354 385 501 568 560 514 712 681 771 982 1023 982 808 1058 1055 997 1077 1195 1075 753 643 634 790 879 984 957 660 728 734 709 628 660 727 793 805 652 614 525 488 477 480 487 483 534 566 634 715
2558 2565 2499 2362 2288 2386 2316 2324 2024 1971 1964 1597 1593 1642 1753 1480 1430 1468 1662 1305 1276 1202 1526 1505 1442 1374 1237 1116 1040 861 862 770 679 678 628 663 734 680 518 462 408 380 384 483 529 712 805 940 982 987 982 1037 993 1011 927 709 640 815 995 1174 1344 1288 1254 853 563 604 458 441 515 577 610 654 727 853 838 596 735 724 630 566 522 434 462 508 459
2452 2493 2378 2261 2225 2386 2360 2350 2270 2108 1776 1703 1784 2046 2018 1959 1731 1667 1686 1386 1400 1544 1464 1438 1378 1347 1309 1151 1072 958 921 821 724 691 695 853 795 863 724 676 768 736 723 718 705 768 783 937 941 955 1008 903 982 878 788 722 696 826 1085 1102 1392 1837 1349 632 629 508 320 319 283 219 84 72 55 182 527 569 478 374 364 419 422 452 463 400 401
2442 2432 2321 2196 2143 2422 2438 2439 2365 2011 1841 1777 2079 2116 2042 2224 1960 1836 1841 1464 1554 1492 1457 1420 1386 1304 1310 1136 1072 1010 907 828 759 702 697 814 800 915 997 1026 1102 1148 1091 1090 1028 1036 1059 975 942 1008 1030 959 891 963 870 630 701 1039 1013 818 863 879 783 678 558 400 265 244 253 249 148 123 87 57 144 182 77 60 130 295 336 333 285 416 1015
2352 2301 2246 2133 2160 2464 2448 2412 2437 1964 1877 1948 2258 2183 2204 2212 1811 1613 1984 1732 1586 1571 1508 1463 1330 1316 1289 1167 1064 1036 924 802 730 793 840 890 1187 1154 1236 1160 1108 1118 970 906 926 969 998 1057 1133 1177 1090 1045 992 830 887 746 916 1051 818 737 835 813 714 589 486 322 243 276 331 382 486 404 421 392 330 337 358 413 457 420 372 229 185 518 648
2300 2252 2174 2112 2341 2442 2385 2425 2489 2182 2234 2239 2307 2320 2267 2294 1999 1987 1883 1837 1700 1591 1570 1591 1342 1324 1306 1148 1080 1052 943 873 904 888 895 1086 1131 1184 1174 1139 1273 1446 1536 1270 1172 1207 1169 1286 1240 1289 1354 1167 840 791 883 884 947 1013 653 624 579 500 423 344 147 229 285 315 357 412 519 522 228 104 73 402 620 545 347 208 158 225 342 367 401
2305 2226 2150 2243 2555 2354 2400 2491 2479 2448 2417 2322 2346 2368 2475 2455 2307 2124 2192 1925 1784 1722 1704 1629 1516 1384 1392 1184 1092 1093 1132 992 935 949 1107 1192 1166 1232 1524 1766 1818 1691 1271 1129 1100 1146 1209 1183 1336 1386 1255 1037 724 744 1138 769 1003 887 486 473 472 438 382 258 31 20 264 287 284 145 142 100 25 370 596 531 475 326 167 372 539 575 605 498 590
2306 2301 2316 2340 2424 2365 2468 2532 2539 2493 2451 2409 2413 2491 2530 2505 2410 2326 2171 2157 2067 1946 1751 1650 1675 1695 1597 1352 1183 1239 1262 1124 1129 1163 1173 1187 1333 1784 1842 1886 1721 1348 1244 1182 1202 1227 1242 1314 1340 1411 1212 954 1036 1055 989 1003 1027 823 455 469 456 424 348 218 4 8 9 6 32 30 66 24 228 348 369 490 421 433 423 424 386 441 288 594 461
2297 2410 2401 2336 2264 2665 2496 2486 2544 2581 2488 2531 2495 2501 2546 2514 2318 2362 2270 2250 2224 2163 2084 1982 1836 1765 1841 1754 1527 1464 1421 1388 1367 1287 1271 1311 1789 1872 2008 1968 1772 1428 1309 1279 1260 1292 1350 1449 1450 1116 987 1269 1239 913 1142 1220 1081 785 445 489 520 456 368 271 165 29 63 87 294 325 357 380 382 508 471 520 451 350 328 430 430 408 490 425 279
2280 2402 2415 2291 2413 2455 2605 2512 2508 2625 2538 2465 2466 2533 2527 2439 2344 2329 2312 2299 2273 2228 2173 1913 1999 1912 1783 1907 1986 1759 1546 1483 1381 1325 1484 1777 2011 2127 1919 1748 1537 1268 1283 1319 1374 1368 1407 1392 1174 1199 1291 1477 1333 1166 1281 1375 1036 600 459 512 458 285 216 27 16 2 50 175 235 189 147 320 656 548 433 644 641 642 550 412 343 318 360 370 292
2265 2437 2410 2299 2387 2524 2459 2664 2581 2637 2515 2488 2488 2588 2535 2413 2368 2371 2373 2345 2238 2180 2212 2181 2185 2152 2127 2246 2227 1908 1614 1545 1567 1667 1945 2079 2057 1970 1845 1727 1387 1282 1368 1347 1361 1352 1450 1407 1233 1300 1408 1370 1248 1116 1343 1494 886 588 490 468 351 282 236 58 0 0 0 1 244 257 135 407 573 395 540 526 479 368 360 290 251 273 129 196 235
2318 2394 2323 2337 2392 2382 2397 2509 2524 2673 2556 2502 2562 2591 2536 2338 2233 2289 2344 2304 2220 2231 2254 2270 2311 2339 2338 2350 2327 2111 1951 1698 1715 1837 2126 2206 2032 1980 1817 1512 1390 1472 1555 1561 1505 1444 1365 1268 1333 1260 1289 1364 1359 1221 1400 1422 941 762 639 546 401 317 210 27 0 0 4 167 114 242 256 109 444 533 452 264 258 314 257 146 169 240 302 199 138
2221 2254 2297 2402 2380 2295 2374 2435 2436 2242 2280 2146 2449 2559 2396 2237 2097 2175 2241 2218 2231 2227 2247 2312 2296 2312 2319 2292 2294 2280 2122 2049 2025 2197 2178 2082 1977 1867 1743 1548 1448 1532 1615 1606 1522 1428 1420 1275 1448 1373 1312 1350 1099 1251 1206 983 945 794 647 521 385 269 178 61 2 54 207 296 244 358 326 717 546 349 243 387 417 211 120 171 163 78 75 127 173
2076 2182 2333 2418 2381 2310 2331 2355 2217 2233 2273 2177 2098 1994 2068 2060 2120 2175 2169 2176 2170 2222 2312 2267 2251 2266 2260 2257 2274 2457 2507 2320 2260 2161 2076 1961 1871 1797 1666 1454 1486 1531 1640 1591 1561 1535 1402 1516 1390 1393 1468 1424 1179 1337 1382 978 710 666 585 496 363 211 228 151 32 25 25 2 253 318 427 682 638 447 418 358 121 321 398 322 245 202 201 164 85
1987 2144 2296 2337 2370 2311 2269 2176 2104 2150 2117 2218 2254 2038 2074 2066 2034 2076 2083 2087 2238 2169 2160 2202 2254 2233 2163 2054 2069 2221 2138 2290 2299 2089 2041 1947 1758 1640 1660 1492 1495 1541 1676 1644 1580 1551 1439 1443 1548 1657 1540 1407 1323 1241 1284 1013 812 774 653 546 438 325 26 12 7 2 82 180 182 142 489 474 239 228 256 218 202 166 136 112 94 116 186 158 145
1902 1995 2112 2220 2313 2251 2165 2088 2054 2049 2044 2145 2093 1972 1991 2007 1972 2083 2154 2250 2218 2147 1925 2171 2062 1985 1918 1979 1897 1842 1944 2027 2090 1890 1963 1861 1824 1744 1716 1529 1476 1505 1656 1595 1549 1512 1396 1533 1573 1716 1508 1445 1366 1340 1449 926 790 731 635 524 322 170 6 3 13 94 133 186 82 40 242 227 311 309 318 287 259 200 112 87 108 48 4 5 18
1742 1823 1965 2156 2199 2150 2106 2063 2034 2022 2036 2065 2052 1896 1957 1875 1780 1868 1969 1880 2035 2072 1882 1808 2022 1586 1870 1660 1707 1768 1786 1820 1797 1866 1768 1832 1706 1726 1662 1606 1522 1530 1673 1636 1556 1477 1425 1476 1600 1657 1624 1335 696 680 1193 1028 771 646 522 328 297 203 57 6 14 102 115 65 143 231 234 286 288 243 148 171 162 125 124 80 70 82 85 65 41
1563 1709 1934 2051 2058 2100 2088 2039 2000 1937 1958 1949 1947 1886 1827 1782 1777 1819 1781 1809 1738 1718 1708 1860 1558 1516 1547 1588 1642 1657 1616 1659 1780 1743 1625 1721 1750 1734 1630 1552 1538 1563 1662 1744 1642 1451 1442 1471 1556 1633 1438 660 602 579 754 739 645 648 447 344 302 229 168 78 95 81 80 121 98 254 209 211 177 166 143 149 96 75 83 58 22 12 13 31 22
1190 1659 1855 1932 1976 2069 2075 1975 1943 1855 1823 1830 1846 1882 1754 1781 1784 1766 1736 1763 1625 1634 1585 1499 1483 1493 1542 1543 1556 1565 1558 1643 1751 2009 1844 1683 1727 1729 1623 1563 1610 1538 1502 1586 1664 1616 1521 1513 1665 1575 782 566 526 540 619 525 456 487 469 386 297 260 199 176 23 20 63 133 98 173 142 115 145 169 156 124 98 83 65 57 55 43 36 26 26
1149 1337 1530 1746 1970 1992 1942 1903 1800 1747 1737 1745 1813 1877 1747 1745 1723 1694 1717 1706 1624 1559 1524 1514 1466 1508 1458 1472 1502 1541 1526 1476 1543 1667 1583 1608 1574 1502 1331 1309 1237 1243 1315 1234 1320 1356 1246 1265 1148 809 629 662 503 553 516 434 406 412 378 331 300 273 279 236 41 13 16 42 136 142 190 227 203 136 155 176 129 97 96 82 71 49 40 17 11
918 1119 1323 1691 1875 1875 1799 1798 1762 1682 1693 1695 1812 1874 1805 1745 1693 1650 1695 1637 1520 1500 1468 1493 1458 1432 1432 1468 1456 1504 1492 1480 1484 1507 1488 1567 1441 1374 1259 1252 1247 1166 1066 882 735 701 876 987 965 759 703 770 568 547 528 517 432 407 386 382 334 345 306 241 111 66 64 117 282 275 275 197 156 145 166 116 74 71 76 63 40 10 25 20 8
880 967 1163 1514 1681 1683 1673 1723 1786 1648 1621 1657 1779 1762 1695 1692 1676 1667 1662 1592 1468 1458 1467 1362 1405 1284 1355 1420 1427 1434 1383 1346 1350 1319 1341 1420 1363 1243 1203 1198 1122 1006 900 631 351 253 367 582 626 433 448 928 840 667 574 527 536 463 418 388 390 329 322 249 175 74 77 91 236 192 161 98 95 161 167 109 98 87 70 56 37 25 14 2 7
805 1038 1135 1335 1478 1456 1562 1629 1528 1497 1466 1564 1740 1675 1584 1575 1661 1373 1561 1601 1453 1413 1514 1446 1277 1266 1318 1364 1365 1345 1278 1232 1241 1165 1185 1288 1292 1198 1160 1044 861 608 510 412 53 36 54 130 200 239 606 946 924 857 723 699 622 601 478 447 382 325 308 267 205 116 45 109 152 226 157 183 233 154 100 81 89 74 65 67 45 29 23 38 29
785 986 1142 1236 1300 1350 1396 1069 1344 1428 1446 1428 1538 1498 1476 1454 1414 1469 1604 1600 1508 1405 1428 1361 1304 1350 1332 1335 1289 1231 1199 1187 1172 1117 1179 1269 1252 1181 1032 810 601 494 371 11 9 0 178 198 241 428 829 822 761 914 861 864 775 663 633 530 451 368 319 277 224 114 57 86 148 171 142 149 156 61 71 103 61 56 64 102 71 63 52 40 0
950 956 1157 1206 1250 1224 1129 1177 1173 1321 1396 1298 1297 1437 1417 1378 1431 1597 1684 1576 1598 1497 1416 1300 1358 1411 1317 1307 1218 1140 1158 1176 1161 1124 1202 1223 1168 1178 936 730 478 416 404 135 2 0 157 341 505 637 611 624 632 674 1034 908 788 713 653 659 574 466 351 332 218 32 2 3 35 191 160 353 272 229 210 110 43 68 77 69 93 87 65 46 44
1382 1188 1342 1193 1201 1134 1150 1170 1065 1235 1316 1283 1217 1286 1262 1214 1481 1584 1687 1590 1616 1459 1372 1368 1309 1385 1355 1323 1274 1103 1134 1166 1168 1177 1148 1135 1097 1024 910 724 581 472 290 423 5 1 0 227 273 218 251 347 494 605 1120 960 823 675 683 796 747 541 406 357 181 5 1 2 12 54 203 170 153 214 583 346 234 130 67 87 91 61 79 71 55
1749 1720 1658 1253 1197 1133 1123 1170 1184 1112 1158 1106 982 1099 1011 1129 1282 1375 1573 1611 1523 1449 1408 1373 1469 1399 1393 1308 1304 1171 1131 1176 1148 1145 1073 1036 998 955 851 715 629 512 452 235 453 77 0 2 16 120 174 225 294 519 899 1011 805 588 556 615 669 670 522 296 18 0 0 0 0 0 28 166 230 201 388 428 306 130 137 117 73 78 77 140 127
1770 1933 1601 1403 1249 1201 1145 1043 1106 995 975 895 853 981 914 1171 1104 1087 1444 1469 1520 1503 1460 1333 1351 1420 1403 1310 1289 1252 1178 1205 1117 1067 986 896 886 865 819 770 649 552 509 193 405 325 90 174 148 218 282 313 373 543 787 965 830 506 466 490 548 510 423 236 2 0 0 0 0 0 26 237 408 713 227 49 107 91 166 235 209 215 206 162 185
1761 1994 1924 1629 1273 1280 1114 1089 1097 923 758 674 706 829 828 1011 1011 1048 1276 1432 1550 1506 1451 1414 1363 1364 1323 1297 1298 1252 1180 1187 1111 1026 930 836 826 804 747 720 665 591 537 455 248 401 347 273 302 357 438 526 566 691 840 967 747 436 447 450 420 371 300 93 0 0 0 0 0 128 225 187 7 234 460 597 967 738 612 327 358 295 218 190 184
1674 1884 1970 1803 1332 1257 1112 1135 1034 901 693 739 669 608 731 672 640 978 1148 1239 1376 1347 1436 1454 1423 1368 1322 1257 1230 1201 1101 1130 1136 1044 972 874 836 844 794 756 649 609 559 526 198 396 416 385 392 398 458 634 768 876 944 901 554 425 377 210 327 0 332 341 274 0 0 0 0 202 201 235 390 523 520 662 962 964 778 611 387 277 230 186 175
1710 1845 1957 1877 1478 1374 1364 1348 1136 1068 894 586 646 544 567 606 610 788 1022 1119 1357 1368 1315 1489 1442 1424 1346 1236 1164 1103 1041 1064 1112 1074 996 967 916 862 807 764 702 613 461 524 434 444 461 421 412 375 350 424 689 795 782 555 427 359 0 128 386 389 401 436 335 24 0 0 176 225 208 326 385 421 481 318 452 750 732 661 670 464 287 228 248
1831 1885 1958 1813 1590 1487 1394 1227 1243 1223 1079 841 685 302 349 423 496 647 1052 1031 1334 1429 1409 1493 1404 1421 1387 1292 1125 1081 1057 1051 1003 986 822 789 768 731 651 604 589 603 580 539 512 539 398 376 392 392 388 374 344 442 469 400 347 326 111 0 113 360 410 423 303 188 170 185 216 245 256 327 476 503 283 319 384 428 753 632 506 519 410 356 276
1893 1758 1892 1802 1583 1496 1342 1001 1040 1114 990 924 810 568 391 374 561 730 1020 1010 1176 1435 1369 1398 1415 1352 1283 1159 1054 1120 1124 1065 853 830 775 722 696 616 700 744 767 698 558 572 606 498 487 464 392 425 408 347 376 383 423 393 149 193 10 20 78 105 314 291 224 238 125 213 239 239 299 376 412 294 281 354 366 346 371 450 478 466 484 330 416
2218 1950 1799 1732 1634 1509 1384 1124 1054 1151 1068 679 756 603 546 404 447 623 927 1134 1050 1284 1332 1290 1403 1384 1318 1076 888 941 1143 1106 771 696 750 744 642 546 882 841 895 735 605 584 582 555 550 499 450 433 380 367 360 336 353 327 264 0 4 32 70 1 1 124 236 204 135 222 246 240 308 364 346 255 316 369 324 260 216 286 326 328 372 430 440
2388 1811 1786 1749 1691 1594 1452 1251 1059 975 1091 855 720 752 588 558 441 550 759 992 1046 1222 1294 1179 1145 1335 1267 987 800 780 774 929 804 579 655 731 745 653 942 882 925 878 725 728 722 748 645 574 532 484 351 287 136 280 267 283 72 1 1 27 91 148 244 245 201 173 143 195 226 180 271 244 317 247 306 290 148 94 124 167 236 325 361 423 448
2160 1816 1825 1785 1689 1590 1469 1318 1040 849 817 874 793 703 594 620 499 678 756 916 1070 1210 1296 1110 1024 1219 1080 918 797 675 536 529 582 409 579 701 886 791 955 927 879 814 839 768 800 827 734 606 524 475 381 211 252 291 314 302 132 28 46 102 204 240 260 164 178 127 146 178 37 188 185 129 196 182 212 132 119 118 134 142 203 270 290 351 394
1786 1785 1795 1758 1659 1579 1428 1110 810 717 857 928 842 843 807 682 557 686 825 944 1123 1229 1318 1154 1192 1192 984 876 787 694 667 571 346 121 392 618 858 899 967 948 861 765 627 777 853 889 647 472 474 415 379 284 166 286 74 58 24 24 125 51 137 131 113 127 61 26 11 114 178 195 1 116 127 127 114 118 162 96 101 133 178 194 262 332 321
1662 1703 1682 1648 1619 1558 1381 1096 820 756 895 904 792 819 809 808 650 722 874 1018 1125 1215 1250 1258 1198 1087 949 863 778 680 634 602 461 222 86 414 649 886 815 822 888 800 698 691 818 853 629 451 442 400 298 266 221 164 143 16 4 38 20 31 74 94 44 117 202 141 90 134 130 58 28 54 175 162 135 153 161 64 47 79 136 182 218 292 278
1652 1633 1568 1525 1477 1396 1253 1121 944 779 852 976 750 823 749 837 896 982 1010 1040 1176 1240 1190 1143 1172 1084 928 849 786 680 697 664 565 414 328 88 498 776 881 810 1064 986 923 840 820 762 598 491 467 406 294 267 189 184 146 4 8 0 1 16 44 71 39 82 55 50 74 56 22 4 14 33 96 47 56 88 133 66 52 66 113 152 228 240 264
1765 1611 1587 1640 1478 1332 1310 1200 939 845 854 845 872 857 837 966 1082 1128 1122 1081 1070 1170 1171 1124 1095 1024 875 770 727 729 755 711 675 523 409 422 547 659 702 829 930 1031 1052 868 885 763 614 578 507 406 381 300 175 163 103 122 23 6 0 0 4 29 44 112 45 3 29 21 21 35 16 22 26 132 140 110 97 64 14 71 113 121 148 182 192
1838 1739 1691 1666 1501 1375 1391 1189 860 859 933 986 974 896 906 1045 1147 1174 1166 1111 1088 1032 1088 1132 1107 1017 857 751 746 801 845 756 657 559 429 492 571 646 535 530 603 799 949 1018 994 710 621 636 557 499 449 331 188 162 192 191 143 0 0 0 0 0 3 51 14 3 15 53 69 75 61 55 91 134 4 0 0 0 0 66 91 109 102 137 144
1798 1720 1692 1579 1516 1386 1302 1238 1142 1077 992 1102 1089 1061 955 1100 1151 1114 1057 1007 1019 977 1027 1106 1175 1138 966 796 755 816 859 845 734 595 515 505 575 563 417 324 470 591 810 1021 929 726 588 600 526 496 465 329 101 144 150 166 211 11 0 0 0 0 0 1 5 3 5 6 62 17 28 96 122 88 14 41 0 0 0 0 34 92 1 0 0
1743 1646 1628 1516 1440 1356 1228 1261 1375 1290 1036 1121 1252 1191 1094 1109 1133 1137 1064 984 949 961 952 1027 1097 1130 1019 892 833 784 713 800 783 582 476 526 538 501 439 398 559 661 660 812 829 778 672 568 584 508 466 360 4 41 93 124 15 146 0 0 0 0 0 0 0 0 0 0 6 16 40 30 53 15 0 0 0 0 0 0 0 0 0 0 0
1659 1570 1472 1389 1247 1199 1235 1301 1404 1426 1070 1144 1341 1298 1185 1124 1142 1114 1116 1041 1020 986 978 975 986 933 918 868 834 698 602 711 728 606 605 739 898 1053 818 487 504 768 711 804 771 766 700 659 639 610 470 353 0 199 29 52 1 0 0 0 0 0 0 0 0 0 0 0 3 6 7 6 30 39 72 54 0 0 0 0 0 0 0 0 0
1527 1555 1414 1181 1080 1093 1228 1352 1440 1526 1291 1191 1326 1378 1303 1248 1233 1150 1077 1070 1026 1029 991 924 834 835 842 853 784 651 500 542 558 590 671 807 946 1077 977 593 520 632 880 949 911 829 748 669 615 590 507 441 447 398 7 4 0 0 0 0 0 0 0 0 0 0 0 0 0 2 9 6 9 2 82 105 53 0 0 0 19 0 0 0 0
1612 1560 1285 1024 965 1091 1288 1394 1512 1627 1605 1386 1387 1373 1305 1276 1299 1230 1087 1091 1040 1041 999 900 808 814 830 818 752 630 543 549 568 675 721 778 896 1054 1033 839 717 725 708 749 849 838 860 827 743 622 464 478 539 456 376 0 252 199 0 0 0 0 0 0 0 0 0 0 0 5 27 11 6 2 57 120 0 0 61 0 92 1 0 0 0
Wind_Speed
23 26 25 29 31 32 34 33 34 34 33 33 35 35 35 36 37 38 39 40 42 42 42 42 42 42 43 42 41 39 39 38 38 37 36 nan 31 30 29 29 30 30 28 27 26 24 22 21 21 20 19 19 19 18 19 19 19 20 21 21 23 22 23 22 23 22 21 19 18 18 18 18 19 19 20 21 21 19 18 17 14 9 6 11 14
26 26 26 27 32 33 34 34 34 33 33 34 35 35 36 37 37 38 38 39 41 41 41 41 42 42 42 41 41 39 39 39 39 39 37 35 32 31 29 28 27 26 27 26 25 24 21 21 22 20 20 21 19 20 21 20 20 16 19 21 20 20 21 20 20 19 18 19 19 17 17 17 18 19 21 21 20 19 18 17 15 8 5 14 14
27 27 26 29 35 35 34 35 34 34 34 34 36 36 36 37 37 37 38 39 39 39 39 39 41 42 41 41 41 40 40 40 39 38 38 35 32 31 29 29 28 27 27 26 23 22 21 21 21 19 20 21 21 21 20 21 21 18 19 19 20 20 19 18 16 16 19 18 17 17 18 19 19 20 21 21 19 19 19 17 16 13 9 16 13
31 27 26 30 36 35 34 35 34 35 35 34 36 36 36 35 36 35 36 36 37 38 38 39 39 40 41 40 40 41 42 41 41 39 38 35 32 30 30 29 28 28 27 25 23 21 22 21 20 19 19 20 19 20 20 20 19 17 16 17 18 19 17 18 18 18 17 17 16 14 7 7 12 18 19 19 20 19 18 17 16 16 16 14 15
32 30 28 28 30 33 35 35 34 35 36 36 35 36 36 36 35 35 35 35 36 37 38 39 40 40 41 41 41 42 42 42 41 38 36 34 31 30 29 29 29 28 26 24 22 21 21 21 19 18 18 20 20 20 19 18 16 15 15 15 16 15 15 16 16 16 16 17 18 12 8 7 7 16 17 18 19 19 18 17 16 15 15 16 15
32 31 29 28 29 30 35 35 35 36 37 36 35 35 35 35 35 35 35 36 36 36 38 38 40 40 41 42 42 42 42 41 40 38 37 34 29 28 28 29 29 26 24 23 21 21 20 19 18 17 18 18 18 18 17 15 14 12 11 10 10 11 11 14 17 16 16 15 13 8 8 8 9 11 19 19 18 17 16 17 16 15 15 15 15
34 30 29 29 28 30 35 35 36 36 36 36 36 35 35 34 34 34 35 36 35 36 37 38 39 40 41 42 43 42 41 41 40 38 37 34 30 28 30 29 27 25 23 22 22 21 19 18 17 18 18 18 17 16 14 13 12 11 10 9 9 10 11 16 17 17 15 10 8 9 9 9 9 8 20 18 18 18 18 18 17 16 15 15 14
31 30 29 29 28 31 34 34 36 37 36 36 35 34 33 33 33 34 34 35 34 35 36 37 39 40 42 42 42 42 41 40 39 38 35 32 29 28 28 29 28 25 22 20 20 19 19 18 18 17 17 17 16 15 14 13 11 10 10 12 14 14 18 18 17 17 15 9 9 9 nan nan nan 8 17 17 18 17 17 17 17 16 16 16 14
32 31 30 29 28 36 34 33 34 36 35 36 35 34 34 32 33 33 33 34 34 35 36 37 39 40 42 42 42 42 41 39 38 37 35 31 30 29 27 27 26 23 20 20 20 19 19 18 18 17 16 16 16 15 14 13 11 10 12 15 17 17 17 17 17 16 11 9 10 10 10 9 nan nan 16 18 nan nan 17 16 15 17 16 16 17
31 30 29 28 28 34 33 33 32 35 35 35 35 34 32 32 32 33 33 34 34 34 36 38 39 40 42 42 41 41 40 39 37 36 33 31 30 29 27 25 24 21 18 18 18 18 18 18 18 16 16 16 16 15 14 12 11 13 15 16 16 16 16 16 16 13 10 9 10 11 12 12 8 9 15 17 19 20 19 17 14 14 14 18 19
30 28 28 28 30 33 32 32 31 33 35 34 33 32 32 31 32 32 32 32 34 34 36 38 39 41 41 41 42 41 40 39 36 35 33 30 30 28 27 26 24 21 18 16 17 17 17 17 17 16 16 16 15 15 14 14 13 16 16 15 15 15 15 15 13 9 10 10 10 9 13 15 9 10 nan 20 21 20 20 19 19 19 18 19 19
29 28 27 27 31 32 31 31 31 31 32 32 32 31 30 31 31 31 31 31 33 34 36 38 39 41 41 41 42 41 40 38 36 34 33 30 29 28 27 26 24 20 17 15 16 16 16 17 17 16 16 16 16 16 16 17 16 17 17 16 15 15 15 14 nan nan 9 9 10 8 8 8 nan 15 20 21 21 21 20 20 21 20 20 20 20
30 29 28 27 27 30 30 29 30 30 30 30 29 30 30 31 31 31 30 29 30 34 37 38 39 40 40 41 42 41 39 38 35 33 32 29 30 29 27 25 23 19 18 16 16 16 16 16 16 16 16 16 17 17 17 18 16 17 17 16 15 15 14 13 nan nan nan nan nan nan nan nan 11 19 20 21 20 21 20 20 20 20 20 21 21
31 29 28 27 26 31 29 28 28 27 27 26 27 27 28 29 30 29 28 28 30 34 36 38 39 40 39 39 40 39 38 37 35 32 30 29 30 28 27 26 22 19 18 17 16 16 16 16 16 16 16 16 16 17 18 17 16 17 18 16 15 15 14 9 7 nan nan nan 7 8 9 11 12 20 20 20 20 21 21 21 21 20 21 21 21
33 31 29 27 26 26 30 27 26 25 25 24 25 26 27 28 28 27 27 28 31 34 37 40 40 39 39 40 38 38 38 37 34 31 29 29 29 28 27 26 22 20 19 18 16 15 16 16 14 14 15 15 15 16 15 16 19 21 19 15 14 13 11 nan nan nan nan 7 7 10 11 10 16 18 21 21 21 20 21 21 21 21 21 21 22
33 32 29 26 24 23 23 25 25 23 24 24 24 25 26 27 27 26 26 29 31 34 37 38 38 38 37 37 37 37 37 36 32 29 28 29 29 28 28 26 22 20 20 20 18 17 17 15 13 13 15 16 18 16 14 17 23 22 18 13 12 13 12 nan nan nan nan nan 6 7 9 11 19 18 20 20 20 20 20 20 21 20 21 22 22
32 33 31 26 24 22 21 20 21 24 23 24 24 25 26 27 26 26 27 30 33 35 37 37 37 37 37 36 36 35 35 34 30 28 28 28 28 28 27 25 23 21 21 21 19 18 17 15 13 14 15 17 18 17 17 20 23 21 17 13 13 13 12 nan nan nan nan 5 5 7 8 9 17 17 20 20 19 19 19 19 21 21 20 20 20
34 34 31 27 24 22 20 19 19 21 20 22 24 26 27 28 26 26 29 31 34 36 37 36 36 36 38 36 35 34 34 31 28 27 27 28 28 28 27 25 22 21 21 21 20 19 18 15 14 14 16 18 19 18 20 19 19 19 16 13 12 13 13 nan nan nan 5 6 7 7 8 11 17 17 19 20 19 19 19 20 19 nan nan 20 21
36 35 32 28 25 22 21 20 21 21 21 21 21 24 28 27 26 28 31 34 36 37 37 36 36 36 36 36 35 35 33 30 28 27 27 28 29 28 26 24 22 21 21 21 20 19 18 16 16 16 16 16 18 19 17 17 16 17 16 14 14 14 15 9 nan nan nan nan 7 7 8 14 15 19 19 19 20 21 21 20 20 20 20 19 nan
34 33 32 27 24 22 21 21 21 21 21 21 21 21 25 28 29 32 34 37 38 38 37 36 36 36 36 35 35 31 30 26 27 23 26 28 28 25 26 24 22 21 20 21 20 19 19 18 17 17 15 15 17 20 18 16 16 16 15 15 15 14 nan nan nan nan nan 7 7 8 9 13 16 18 19 21 21 21 21 21 nan 20 20 20 20
31 33 31 27 23 23 23 21 21 21 21 21 21 22 23 30 30 35 37 38 38 38 37 36 35 35 34 32 30 25 22 20 20 18 24 21 25 28 26 24 22 19 19 20 20 20 20 20 19 18 14 13 15 18 18 17 17 16 16 16 17 10 nan nan nan nan 7 7 nan nan 14 17 18 19 20 21 21 21 20 nan 20 nan nan nan nan
33 31 29 27 24 23 22 21 21 22 23 22 22 22 24 28 29 31 32 34 35 35 34 31 32 30 32 29 25 23 21 18 17 20 18 20 24 27 26 24 22 19 18 20 20 21 21 20 19 18 14 11 14 12 12 18 18 17 17 19 13 10 nan nan nan 10 9 nan 7 10 18 19 20 20 19 19 20 21 20 nan nan nan nan nan nan
35 30 26 24 23 21 21 22 22 23 24 24 24 25 27 28 29 30 30 31 30 32 31 31 31 31 27 26 24 21 19 17 17 19 18 22 22 27 26 24 23 20 18 19 21 21 20 19 19 18 13 10 9 11 13 12 12 18 17 13 12 10 10 nan nan nan nan 10 nan 14 15 18 20 21 21 22 nan nan nan nan nan nan nan nan nan
35 30 27 24 22 21 22 23 24 24 25 25 27 28 28 28 28 29 28 27 28 29 30 31 32 29 27 25 22 19 18 17 19 24 23 20 21 25 25 25 25 23 20 18 21 20 20 18 17 17 10 4 8 11 13 13 12 12 12 12 12 11 11 11 nan nan nan 12 nan 17 16 15 17 20 22 23 nan nan nan nan nan nan nan nan nan
34 32 28 25 24 24 25 25 26 26 27 27 29 29 29 28 27 27 27 26 27 28 30 31 30 28 26 24 21 18 18 18 17 18 19 20 20 20 20 19 20 21 21 17 17 17 16 14 13 13 9 5 8 11 12 13 13 12 12 12 13 13 11 11 nan nan nan nan 11 17 18 17 17 18 20 22 24 nan nan nan nan nan nan nan nan
33 30 24 23 24 26 27 26 28 28 29 29 30 31 30 26 25 26 26 26 27 28 29 28 28 27 24 23 22 19 17 18 18 18 19 21 21 21 20 20 20 21 19 18 17 17 15 13 12 12 9 5 7 10 10 13 13 13 13 12 13 13 13 12 12 nan nan 13 11 17 17 18 18 18 18 20 nan nan nan nan nan nan nan nan nan
28 30 27 27 27 28 28 28 31 33 34 35 33 32 29 26 25 26 26 26 27 28 28 26 26 25 23 22 23 19 17 18 18 17 18 19 21 21 20 18 19 19 17 18 17 16 14 13 11 10 8 6 6 9 9 10 13 14 13 12 11 12 14 13 12 nan nan nan 15 18 17 nan nan 17 18 17 nan nan nan nan nan nan nan nan nan
26 29 28 31 33 32 31 31 32 35 35 35 35 32 28 28 27 26 25 25 27 28 28 27 26 23 22 22 22 19 18 18 17 16 17 18 19 20 19 17 16 16 16 17 nan nan nan 12 10 9 8 6 5 8 9 10 12 13 14 12 11 11 12 13 12 12 nan 14 15 17 16 15 16 17 16 nan nan nan nan nan nan nan nan nan nan
23 27 28 34 36 34 30 27 30 35 36 35 34 31 28 31 30 26 25 24 26 26 27 27 25 23 23 23 20 19 18 17 16 15 16 17 18 18 18 15 14 15 17 nan nan nan 12 11 10 10 10 7 6 9 9 10 12 12 14 13 12 11 11 11 11 12 nan nan 12 14 16 17 16 nan nan 16 nan nan nan 22 nan nan nan nan nan
24 24 25 28 34 36 35 33 32 33 33 34 33 30 29 32 31 28 25 26 24 25 26 26 24 23 23 23 19 17 17 18 16 15 15 15 16 17 16 15 15 16 16 16 nan nan 13 12 11 12 10 7 5 8 9 10 11 11 12 14 12 10 10 9 10 nan nan nan nan 13 17 17 15 14 15 16 nan nan nan nan nan nan nan nan nan
23 21 22 24 27 33 35 36 34 33 32 33 35 34 35 32 27 24 25 26 24 24 23 24 23 21 22 21 19 16 17 18 16 15 14 15 15 16 14 14 15 14 15 14 nan nan nan 13 13 13 10 8 5 8 9 9 10 11 11 12 12 11 10 9 9 nan nan nan nan nan 15 18 16 14 13 15 17 18 nan nan nan nan nan nan nan
20 20 20 22 26 30 33 32 31 30 31 32 34 36 36 31 23 24 24 23 22 22 22 22 21 20 20 19 18 16 16 16 16 15 14 15 15 14 14 13 12 14 14 14 13 nan nan nan nan 14 12 8 8 10 8 10 10 11 9 10 11 12 11 10 nan nan nan nan nan nan nan 13 15 15 15 15 16 19 19 18 nan nan nan 17 17
18 21 22 25 26 29 33 34 32 29 29 32 34 36 34 30 26 24 22 21 22 22 21 21 20 20 19 17 16 17 15 15 15 14 14 15 16 16 15 14 15 14 14 14 14 16 nan 16 17 15 14 11 11 12 10 10 11 10 9 10 11 11 10 10 nan nan nan nan nan nan nan 10 11 14 16 nan 16 nan 17 16 16 15 15 15 16
20 21 23 25 25 27 29 32 33 31 29 31 37 36 33 30 28 24 20 21 21 21 20 19 20 20 18 16 17 16 15 15 16 14 14 15 16 15 15 15 15 15 14 15 16 17 16 17 17 16 13 11 12 11 12 11 11 11 9 9 10 10 10 nan nan nan nan nan nan 9 9 10 nan 11 11 15 14 13 13 14 14 13 12 13 13
23 22 22 24 26 27 27 29 34 36 34 32 31 36 31 29 28 23 20 21 21 21 20 19 20 20 19 17 18 17 16 17 16 15 13 14 14 14 14 13 15 14 14 14 18 16 17 17 16 16 14 13 13 11 12 11 10 10 10 9 10 nan 10 10 9 nan nan nan nan 8 8 9 10 11 12 11 13 15 14 11 11 10 9 10 10
25 24 23 23 25 25 26 28 29 29 32 31 24 23 25 26 28 25 23 20 20 18 17 17 19 20 18 17 17 17 17 18 17 16 14 13 13 12 12 12 14 14 14 16 18 16 17 18 15 15 15 13 14 14 13 12 10 10 nan 11 11 10 10 8 8 nan nan nan 8 8 7 8 8 9 11 11 10 11 13 11 10 7 7 7 7
24 25 24 26 30 32 32 30 26 24 25 27 26 23 23 23 25 24 19 16 17 16 16 17 19 19 18 18 17 16 17 17 17 16 16 14 13 12 13 15 16 14 15 17 17 15 17 17 14 11 14 14 15 15 14 12 12 12 13 nan 10 10 9 7 7 7 7 8 8 7 7 6 6 9 7 9 9 8 10 9 7 7 7 5 4
24 24 27 29 33 35 36 36 31 29 27 25 24 21 19 19 21 21 18 16 17 18 18 18 18 17 18 17 15 14 15 16 16 16 17 16 14 14 16 18 17 16 17 17 16 14 16 16 15 13 13 16 15 14 13 13 13 14 nan nan nan 10 8 7 7 7 7 8 8 7 6 5 6 6 6 7 7 8 8 8 9 9 8 8 8
24 27 29 31 34 35 37 36 32 30 28 30 28 22 18 19 20 19 17 20 20 17 18 18 18 19 18 18 15 14 14 15 16 16 18 17 16 16 17 17 19 20 18 17 16 15 15 13 15 15 16 15 15 14 14 14 15 nan nan nan nan nan nan 8 8 8 6 6 6 6 5 5 6 6 5 6 6 6 6 5 5 6 6 6 7
26 29 30 31 33 35 36 35 34 31 28 28 28 26 20 15 14 15 14 14 13 15 16 18 19 19 18 18 16 14 15 15 15 16 18 17 15 15 16 18 19 19 16 16 16 15 15 15 15 17 18 17 16 15 15 17 nan nan nan nan nan 11 10 9 8 7 6 5 5 6 5 6 7 6 6 6 6 nan 5 6 6 6 7 9 8
27 29 31 32 33 34 35 37 35 32 30 28 27 27 21 15 13 13 12 12 11 13 16 19 18 18 17 16 14 13 13 14 14 16 17 16 14 14 15 17 18 17 15 15 16 16 15 16 16 16 17 17 15 15 15 16 18 nan nan 14 13 12 11 10 9 7 7 4 nan 8 7 8 8 8 7 7 7 6 6 6 6 6 7 8 10
28 29 31 32 30 31 32 35 34 32 30 29 27 29 26 20 18 16 16 15 14 14 16 18 18 18 17 15 14 12 11 11 13 14 15 14 14 13 13 16 17 17 15 15 17 16 18 19 18 18 14 15 14 14 nan nan nan nan 13 nan 12 11 11 10 nan nan nan 5 5 5 nan 9 10 8 7 8 7 nan 5 6 6 7 6 7 8
29 28 29 30 28 28 30 33 31 29 27 25 32 34 30 23 20 16 15 15 16 17 17 18 19 18 17 15 14 12 10 10 12 12 nan 13 12 13 13 16 18 19 19 17 16 16 17 19 17 16 15 15 16 13 12 nan nan nan nan nan nan nan nan 9 9 7 nan 6 5 nan nan nan 8 7 6 8 8 nan nan nan 6 6 6 6 7
27 27 28 29 28 27 30 32 30 26 25 20 20 29 29 25 20 15 14 15 15 16 18 19 19 19 16 15 14 12 11 12 12 12 13 nan 13 13 15 17 18 19 19 18 16 17 18 18 17 16 16 17 14 12 12 nan nan nan nan nan nan nan nan nan nan nan nan nan nan nan nan nan nan nan nan nan 7 nan nan nan 6 7 7 6 7
26 27 30 29 26 27 29 31 31 26 24 22 19 19 22 22 19 15 15 16 17 15 15 13 14 15 15 14 12 12 12 13 14 13 13 14 14 15 16 17 18 18 18 18 17 17 17 17 17 17 15 16 14 14 12 14 nan nan nan nan nan nan nan 10 nan nan nan nan nan nan nan nan nan 6 7 7 nan nan nan nan 7 8 8 8 8
25 26 28 27 26 25 27 29 28 27 24 25 23 22 23 25 23 21 20 16 12 14 12 10 11 12 13 13 13 12 13 15 15 14 13 15 16 16 17 18 18 17 17 17 17 20 19 17 15 17 16 14 16 15 14 14 12 nan nan nan nan nan nan nan nan nan nan nan nan nan nan nan nan 8 nan nan nan nan nan nan nan 9 9 9 9
24 25 25 25 25 24 25 27 26 25 23 24 25 23 22 22 23 23 22 20 15 12 15 16 14 15 18 15 15 15 15 15 15 15 15 16 16 16 18 19 19 17 16 18 18 18 17 16 17 17 16 17 17 17 13 14 14 nan nan nan nan nan nan nan nan nan nan nan nan nan nan nan 10 nan nan nan nan nan nan nan nan nan nan nan nan
22 23 23 23 24 24 24 25 24 22 20 22 23 22 20 18 15 14 16 16 15 15 16 17 19 20 20 19 20 19 18 17 17 16 16 17 16 16 17 19 19 17 17 17 17 17 17 17 17 19 20 18 nan nan nan 14 nan 11 nan nan nan nan nan nan nan nan nan nan nan nan nan nan nan nan nan nan nan nan nan nan nan nan nan nan nan
21 22 22 21 20 22 22 23 23 20 18 20 21 20 20 18 16 14 12 15 17 18 18 19 20 21 21 22 22 21 20 20 19 18 18 18 17 16 17 18 18 17 18 19 19 17 16 18 20 21 19 17 nan 16 nan nan nan nan nan nan nan nan nan nan nan nan nan nan nan nan nan nan nan nan nan nan nan nan nan nan nan nan nan nan nan
22 20 18 17 17 20 21 22 21 18 17 18 20 18 18 19 18 16 15 16 19 21 21 20 19 21 21 23 23 23 22 21 20 20 20 20 19 18 17 16 16 18 20 21 20 19 18 19 19 19 19 17 16 17 nan nan nan nan nan nan nan nan nan nan nan nan nan nan nan nan nan nan nan nan nan 12 nan nan nan nan nan nan nan nan nan
28 25 20 16 15 16 19 20 21 21 19 18 18 17 18 20 19 17 17 17 19 22 23 22 21 21 20 22 23 23 23 23 23 22 21 21 20 19 17 15 17 19 21 22 20 19 19 19 19 20 19 17 16 17 16 nan 17 16 nan nan nan nan nan nan nan nan nan nan nan nan nan nan nan nan nan 12 nan nan nan nan nan nan nan nan nan
Wind_Direction
302 305 304 307 308 308 306 306 304 303 302 302 301 299 297 296 296 297 299 301 304 306 308 310 311 312 313 314 315 315 315 315 314 314 314 nan 314 309 309 312 311 307 304 302 299 296 295 295 292 285 283 281 280 278 280 276 277 283 298 294 294 297 294 290 287 286 282 277 269 267 265 265 265 262 256 252 250 247 244 242 237 235 234 248 251
306 305 305 306 307 307 306 306 305 302 302 302 300 298 297 296 297 298 299 302 304 306 308 310 311 312 313 314 314 315 315 315 314 314 315 315 314 314 313 310 306 307 306 302 302 295 294 293 288 283 277 276 279 273 273 276 276 278 282 283 280 287 287 289 291 290 283 278 275 264 252 255 258 254 251 250 248 244 242 243 245 236 237 251 248
298 303 303 306 308 308 307 305 303 302 302 300 299 297 296 296 297 299 301 302 305 306 308 309 310 311 313 314 314 314 314 314 314 316 316 316 315 313 312 313 311 308 305 301 299 298 297 293 287 284 279 276 271 275 279 285 294 296 285 292 302 289 291 294 293 293 285 284 282 271 259 251 249 248 247 246 245 243 242 241 242 241 242 245 243
301 301 302 306 308 308 306 304 303 301 300 299 297 295 295 296 297 298 301 303 305 306 308 308 310 312 313 313 313 314 314 314 315 315 314 314 313 313 316 318 314 310 306 302 301 301 296 289 284 279 280 278 273 274 284 288 288 283 282 282 277 275 272 277 282 283 283 274 264 261 249 237 245 246 247 247 245 244 243 243 243 245 247 249 249
301 302 302 303 304 305 303 302 302 300 299 298 296 295 295 297 298 299 301 303 304 305 307 308 309 311 312 313 313 313 314 313 312 314 314 313 315 316 313 312 310 308 306 302 302 301 297 289 279 275 273 283 288 287 293 285 278 275 276 280 280 272 263 272 276 272 269 264 258 258 253 239 226 241 241 242 242 241 240 240 242 244 246 247 248
301 302 303 300 300 301 301 300 301 300 299 299 297 296 296 298 300 300 302 303 304 305 307 308 309 310 311 312 313 313 313 312 312 314 315 314 314 312 311 312 311 309 304 301 299 298 293 284 278 275 274 273 272 273 273 274 276 276 279 280 289 296 285 272 274 269 265 259 251 247 236 221 213 222 239 235 233 234 239 243 243 243 245 245 246
302 301 301 300 298 299 301 301 301 299 300 300 298 296 297 300 300 301 302 303 304 306 307 307 308 309 310 312 313 314 313 312 312 314 315 313 312 312 311 311 309 307 305 302 300 293 288 285 283 279 277 274 273 270 266 265 267 272 273 277 292 312 304 286 276 272 267 266 265 255 244 233 226 223 243 237 234 235 236 237 236 240 244 246 246
300 302 301 299 298 301 301 301 301 301 302 301 298 297 297 299 301 301 302 304 304 305 306 307 307 309 310 312 313 314 312 312 313 313 314 311 310 310 309 309 309 308 303 299 296 294 292 289 285 282 278 275 269 263 260 261 265 270 267 270 279 293 298 289 280 273 268 270 267 261 nan nan nan 229 247 248 243 237 241 241 241 242 245 248 249
304 304 301 299 298 303 301 300 302 303 303 302 300 298 298 299 301 301 302 303 304 305 306 306 307 308 310 311 312 313 312 312 312 313 311 310 309 305 304 305 302 301 297 296 294 292 288 290 288 283 278 269 264 260 258 259 265 273 274 275 274 279 285 283 277 270 266 266 266 261 257 250 nan nan 250 250 nan nan 243 235 234 244 248 248 246
304 301 300 296 297 302 301 302 303 304 304 303 300 298 298 299 301 302 301 304 304 305 306 306 307 308 309 310 312 313 312 311 311 310 310 307 302 303 305 306 304 302 297 295 292 288 287 287 284 277 272 267 263 261 261 260 265 282 284 277 273 275 276 275 270 263 260 258 260 260 261 259 248 253 266 261 257 258 256 258 255 248 247 250 252
299 298 297 296 299 302 302 303 304 304 304 303 300 298 298 298 299 301 302 303 304 305 305 305 306 306 307 309 311 312 310 310 310 310 308 305 305 306 308 306 305 301 295 291 287 281 278 278 278 277 273 269 266 264 262 261 268 286 284 275 271 270 269 266 259 259 255 250 248 253 264 260 257 254 nan 265 258 253 252 252 255 255 252 249 248
299 297 296 297 304 302 303 303 304 302 303 301 299 298 297 297 298 299 301 302 305 304 304 304 305 305 307 308 310 310 309 308 308 307 306 306 307 308 307 306 301 295 292 290 286 281 279 281 281 279 276 273 270 265 265 266 274 289 288 278 273 272 272 266 nan nan 261 251 254 259 262 262 nan 272 268 263 258 257 260 259 257 254 251 250 249
298 299 298 300 299 304 303 302 301 300 301 300 298 297 296 295 297 298 301 301 303 302 302 302 303 305 306 308 309 309 308 306 306 306 306 308 307 308 305 300 298 298 295 291 286 282 281 283 283 279 277 275 273 272 273 273 284 298 298 287 283 283 278 271 nan nan nan nan nan nan nan nan 267 269 262 261 263 264 263 258 256 256 255 252 249
300 299 301 301 299 306 301 298 296 295 297 295 295 293 292 292 294 297 297 299 300 299 298 300 302 304 305 307 308 308 306 305 305 306 306 306 305 304 304 302 301 299 297 293 288 282 281 282 280 279 276 272 274 273 270 280 294 304 303 296 290 286 282 276 278 nan nan nan 266 264 259 258 253 261 265 266 265 262 261 260 260 260 257 254 251
305 305 304 300 299 297 301 295 293 293 292 290 288 287 289 289 289 291 293 295 295 294 296 300 300 302 304 306 306 306 306 305 305 305 305 305 301 303 302 301 301 301 298 294 289 282 281 282 280 279 277 276 275 264 270 292 308 312 310 300 290 286 285 nan nan nan nan 253 254 256 255 253 263 264 264 263 265 267 263 262 256 255 255 256 256
305 305 301 298 293 292 289 295 294 288 286 285 282 283 284 283 283 286 287 288 289 291 294 296 298 300 301 303 305 306 306 304 303 303 304 300 299 302 303 304 305 304 300 297 292 285 284 284 280 276 276 275 264 259 266 300 312 318 315 298 284 282 283 nan nan nan nan nan 270 265 258 260 261 261 262 264 260 255 258 260 263 264 263 257 253
301 299 298 293 286 280 280 278 283 287 279 278 276 276 276 274 276 279 281 283 287 289 291 294 295 296 298 302 304 304 303 302 302 303 301 298 300 300 301 305 307 306 301 296 291 288 287 288 281 276 275 266 263 259 269 300 311 316 313 296 283 281 285 nan nan nan nan 262 256 257 260 258 272 271 267 266 268 267 265 265 263 260 261 265 266
297 296 294 288 279 272 269 266 270 267 266 275 274 273 271 271 274 277 280 283 285 288 289 290 292 295 299 301 302 300 299 299 300 302 301 299 298 299 302 305 305 304 301 296 291 287 289 289 282 277 269 267 265 266 274 294 303 308 308 294 283 282 284 nan nan nan 255 247 249 253 261 272 280 278 274 272 274 276 273 270 266 nan nan 260 260
297 294 290 285 276 269 264 261 258 259 263 260 260 272 278 279 278 281 283 284 286 288 289 290 293 297 299 301 300 297 295 296 297 299 298 297 298 298 302 303 302 302 298 294 289 287 289 287 283 274 271 269 267 269 273 286 294 303 305 293 284 283 280 270 nan nan nan nan 244 253 269 287 284 281 281 281 279 276 272 268 266 266 266 264 nan
296 293 288 280 275 270 264 261 261 264 263 262 267 273 284 288 287 288 288 288 288 289 290 292 296 300 302 301 301 298 298 294 297 296 299 297 297 297 300 300 299 298 296 292 287 287 287 284 279 274 274 274 270 273 282 291 296 301 301 290 286 278 nan nan nan nan nan 264 251 254 276 282 278 279 280 280 277 275 272 270 nan 265 260 259 261
289 290 285 277 273 270 268 266 270 272 271 273 274 278 285 290 287 291 291 290 289 291 292 295 298 300 299 295 291 286 285 287 289 287 296 292 296 298 298 299 296 295 291 287 284 284 283 281 278 274 277 273 264 271 289 300 300 298 295 282 273 263 nan nan nan nan 272 279 nan nan 282 275 275 277 276 278 279 276 272 nan 269 nan nan nan nan
285 281 278 273 270 267 270 274 274 277 276 273 273 276 278 281 279 281 282 287 290 291 289 286 290 289 295 287 282 284 280 278 282 289 284 293 295 298 298 296 294 289 285 282 280 280 279 281 281 278 279 268 258 260 283 302 301 295 288 277 264 263 nan nan nan 271 266 nan 280 294 293 291 286 281 279 278 279 278 277 nan nan nan nan nan nan
278 267 264 264 261 263 266 270 271 274 274 271 269 270 270 270 275 278 282 287 287 285 283 284 281 283 278 277 279 278 276 273 274 282 286 295 295 298 297 296 291 285 278 276 276 277 279 282 283 282 281 268 258 267 276 281 285 291 285 279 277 268 265 nan nan nan nan 267 nan 289 290 289 291 291 285 279 nan nan nan nan nan nan nan nan nan
263 247 239 240 244 252 258 259 265 267 266 264 263 265 270 273 276 278 280 281 281 281 281 281 279 276 276 273 275 274 270 270 290 296 296 289 292 296 297 295 290 283 275 263 271 276 280 283 281 279 286 275 261 268 273 275 274 270 278 286 285 275 270 276 nan nan nan 275 nan 288 284 283 285 284 285 286 nan nan nan nan nan nan nan nan nan
247 236 225 227 230 239 246 248 253 258 260 260 263 265 270 275 277 278 278 279 279 278 281 280 278 275 272 271 274 269 265 269 270 275 280 286 282 282 284 281 277 272 266 259 260 264 267 271 270 277 287 282 260 262 273 277 278 282 285 287 286 283 279 277 nan nan nan nan 278 297 298 296 290 288 290 291 288 nan nan nan nan nan nan nan nan
274 262 249 244 240 243 245 245 252 255 256 256 258 263 270 271 273 275 274 274 276 277 280 282 279 276 269 269 274 267 258 261 265 274 281 285 284 281 282 282 276 270 266 262 263 268 270 271 277 284 284 276 259 256 270 289 289 285 285 283 286 289 291 286 279 nan nan 268 282 304 300 294 290 291 289 283 nan nan nan nan nan nan nan nan nan
289 279 269 261 259 252 247 245 246 246 245 245 248 254 259 261 261 265 268 269 272 277 280 279 275 273 268 274 281 268 255 258 267 276 284 286 286 284 284 284 277 269 266 270 268 270 273 277 283 288 284 276 252 253 267 282 290 289 283 283 286 292 293 295 294 nan nan nan 266 291 292 nan nan 290 287 287 nan nan nan nan nan nan nan nan nan
284 279 270 264 260 258 253 252 254 255 255 254 256 262 260 261 259 265 261 268 274 276 275 275 272 265 264 273 276 266 258 259 267 278 285 285 287 285 283 281 272 266 267 275 nan nan nan 283 288 288 277 260 240 257 272 277 280 286 288 287 290 295 299 302 301 296 nan 267 255 279 292 296 294 289 290 nan nan nan nan nan nan nan nan nan nan
286 282 271 266 267 269 274 270 261 264 263 265 270 272 271 265 265 264 263 272 268 272 273 269 265 259 261 268 270 265 256 260 268 275 281 287 287 287 283 276 267 268 274 nan nan nan 285 288 286 279 266 243 227 258 268 270 279 288 292 296 297 300 299 296 299 303 nan nan 250 269 287 291 287 nan nan 292 nan nan nan 280 nan nan nan nan nan
279 280 276 262 266 274 281 281 282 281 278 280 282 279 265 259 258 264 270 272 268 268 268 267 261 258 263 265 265 264 263 266 269 271 282 288 289 288 281 266 264 267 275 282 nan nan 297 288 279 272 266 253 230 257 269 277 284 285 289 293 295 298 296 295 295 nan nan nan nan 267 289 290 294 301 299 291 nan nan nan nan nan nan nan nan nan
286 292 286 278 273 278 282 283 287 291 283 286 290 282 267 258 256 263 266 265 262 265 268 271 266 261 265 264 261 259 256 262 269 275 279 286 287 290 284 261 258 271 278 283 nan nan nan 285 280 277 270 260 256 261 273 281 281 279 284 290 292 288 287 289 291 nan nan nan nan nan 278 295 299 295 283 285 286 281 nan nan nan nan nan nan nan
295 294 289 279 275 276 277 279 285 290 287 290 293 286 277 270 265 255 258 261 264 262 262 260 261 262 263 261 255 254 252 257 267 273 280 285 285 285 280 269 265 271 279 282 285 nan nan nan nan 264 261 262 261 260 267 279 272 268 272 280 283 283 279 284 nan nan nan nan nan nan nan 282 296 293 281 277 279 282 284 284 nan nan nan 270 266
286 290 284 279 283 283 286 287 289 288 287 287 287 283 283 276 268 260 258 262 261 259 259 261 262 263 264 259 251 251 253 261 262 271 277 280 278 276 275 272 267 271 276 280 279 270 nan 263 258 259 257 256 262 263 259 254 259 255 263 269 273 273 271 276 nan nan nan nan nan nan nan 275 278 281 283 nan 284 nan 286 287 287 283 275 271 266
284 279 279 286 292 293 292 289 286 278 268 268 274 282 286 275 269 267 263 262 259 260 262 263 264 262 262 258 254 253 257 258 262 264 272 272 270 270 272 268 259 260 271 274 275 272 269 266 262 259 263 269 272 269 270 256 242 246 254 263 261 262 268 nan nan nan nan nan nan 272 271 270 nan 268 274 284 280 288 289 285 287 285 276 273 272
269 275 286 290 295 298 291 284 274 263 264 262 272 289 287 274 269 264 254 254 255 258 258 258 260 261 260 259 257 255 256 259 259 266 269 270 268 265 265 264 253 252 271 272 269 270 272 270 266 260 254 254 260 258 260 253 247 248 251 255 258 nan 261 277 280 nan nan nan nan 275 276 280 282 276 272 266 264 259 252 262 284 285 279 279 278
279 282 281 282 283 276 272 276 280 279 278 276 279 287 280 268 265 256 243 240 252 251 254 256 255 256 258 261 261 259 261 261 262 266 271 268 270 266 262 252 241 253 272 267 267 274 269 265 258 269 267 260 264 253 247 251 240 247 nan 248 247 252 259 267 274 nan nan nan 277 281 282 285 288 290 276 266 263 261 264 251 237 242 279 284 283
278 289 290 280 271 267 267 271 287 291 271 272 277 276 268 270 266 260 258 253 248 251 254 255 251 250 254 260 262 264 266 264 265 265 268 264 262 263 255 242 234 253 270 268 267 270 269 263 256 253 270 269 265 262 252 245 245 240 237 nan 247 250 255 268 267 269 270 277 278 280 282 282 291 283 264 265 261 253 251 256 258 238 216 224 243
293 293 282 278 281 280 278 282 293 297 301 292 286 276 260 256 253 254 259 254 244 243 249 257 254 252 259 263 264 268 269 266 265 265 259 258 255 255 248 241 236 247 258 264 263 255 257 264 258 243 252 266 266 266 260 253 245 242 nan nan nan 249 255 254 260 263 269 279 280 287 282 267 260 255 256 254 251 243 233 233 234 225 224 214 204
279 276 275 276 277 278 277 281 291 299 303 314 319 301 273 251 243 247 251 236 227 238 246 255 256 256 261 264 268 273 274 269 266 264 261 252 252 254 253 246 248 249 253 264 260 253 253 252 261 251 245 245 260 260 257 254 249 nan nan nan nan nan nan 252 248 258 260 272 290 293 275 265 255 242 242 238 232 236 236 230 221 214 202 214 196
282 281 282 282 281 280 285 294 304 310 306 307 313 316 297 274 262 258 257 245 232 236 241 250 249 253 256 259 266 271 274 271 265 261 256 250 251 253 254 250 254 258 261 263 265 263 266 259 252 257 255 253 249 254 253 251 nan nan nan nan nan 243 262 255 254 249 255 276 287 283 254 239 252 247 232 223 219 nan 229 223 207 193 196 197 220
293 295 293 290 291 296 300 305 306 310 314 314 324 328 317 292 278 279 278 259 248 244 239 245 250 250 254 256 263 269 273 267 259 258 256 249 250 246 248 248 258 261 262 268 271 270 266 262 253 247 261 257 252 249 248 250 253 nan nan 241 237 238 255 251 242 240 242 246 nan 272 256 233 241 236 217 216 208 210 222 223 209 198 198 193 196
308 305 301 299 303 303 301 297 305 313 317 320 324 331 327 316 303 293 283 266 255 254 246 247 253 255 260 259 262 269 272 264 257 256 256 259 256 249 249 251 257 261 258 255 259 261 260 258 256 244 242 258 245 254 nan nan nan nan 253 nan 237 236 247 249 nan nan nan 255 259 263 nan 249 238 227 226 222 212 nan 221 216 215 213 199 200 204
314 308 303 302 299 293 290 297 307 312 314 314 315 323 324 323 316 294 293 268 255 256 253 252 255 259 261 261 261 261 262 258 256 254 nan 260 260 257 253 250 251 255 252 253 258 261 261 265 265 263 258 238 239 248 255 nan nan nan nan nan nan nan nan 235 241 244 nan 262 249 nan nan nan 245 232 234 230 214 nan nan nan 223 221 209 206 209
308 305 303 299 296 299 295 300 305 309 307 301 310 316 319 327 331 307 291 278 263 258 251 254 257 257 258 256 249 246 246 249 250 251 252 nan 254 257 253 247 249 248 254 258 257 260 258 260 262 266 267 260 247 245 242 nan nan nan nan nan nan nan nan nan nan nan nan nan nan nan nan nan nan nan nan nan 219 nan nan nan 230 230 224 219 216
314 313 304 304 303 307 301 302 304 309 302 302 313 306 299 304 313 298 288 271 251 260 254 249 257 256 252 247 243 239 240 240 244 250 252 254 251 252 253 251 250 250 252 255 256 259 261 263 270 270 271 272 265 246 241 236 nan nan nan nan nan nan nan 234 nan nan nan nan nan nan nan nan nan 241 232 223 nan nan nan nan 238 238 236 232 228
325 319 309 311 307 306 302 301 302 306 304 298 302 299 297 302 307 309 308 303 293 282 289 281 258 252 250 242 236 235 237 237 239 245 247 248 254 255 255 256 254 252 249 250 250 251 256 261 269 273 268 262 267 259 248 232 246 nan nan nan nan nan nan nan nan nan nan nan nan nan nan nan nan 236 nan nan nan nan nan nan nan 245 237 237 237
329 315 319 321 316 309 307 305 304 309 311 303 298 294 296 307 323 325 321 320 315 297 271 256 248 237 237 241 238 234 233 238 236 238 241 246 252 256 258 258 259 256 246 242 246 252 256 263 262 262 264 258 253 260 260 246 239 nan nan nan nan nan nan nan nan nan nan nan nan nan nan nan 249 nan nan nan nan nan nan nan nan nan nan nan nan
311 314 324 326 326 319 314 310 306 312 314 303 300 297 293 294 309 320 317 311 296 280 279 271 261 251 245 241 238 236 234 233 235 233 236 241 246 251 256 259 260 256 244 239 247 249 250 251 258 258 254 254 nan nan nan 247 nan 244 nan nan nan nan nan nan nan nan nan nan nan nan nan nan nan nan nan nan nan nan nan nan nan nan nan nan nan
301 311 320 325 320 311 311 306 311 317 312 300 296 295 288 286 290 290 281 272 274 271 266 260 260 256 254 247 242 238 236 233 231 232 232 236 241 248 253 257 258 255 244 237 241 250 255 255 252 252 253 252 nan 252 nan nan nan nan nan nan nan nan nan nan nan nan nan nan nan nan nan nan nan nan nan nan nan nan nan nan nan nan nan nan nan
275 282 287 293 306 305 303 302 308 307 300 295 291 289 281 277 280 275 273 271 263 259 260 258 256 254 256 252 247 244 241 241 237 232 232 234 239 242 249 255 253 251 244 239 241 246 246 249 254 254 252 255 246 250 nan nan nan nan nan nan nan nan nan nan nan nan nan nan nan nan nan nan nan nan nan 246 nan nan nan nan nan nan nan nan nan
247 250 252 257 271 284 283 286 285 281 276 273 276 274 269 266 272 269 265 263 259 257 255 253 253 255 256 255 253 250 249 248 244 238 236 236 238 239 245 248 245 241 242 241 240 244 244 248 250 250 250 254 250 249 246 nan 252 250 nan nan nan nan nan nan nan nan nan nan nan nan nan nan nan nan nan 246 nan nan nan nan nan nan nan nan nan